Regional Weather Roundup
Issued by NWS

Home | Current Version | Previous Version | Text Only | Print | Product List | Glossary Off
Versions: 1 2 3 4 5 6 7 8 9 10 11 12 13 14 15 16 17 18 19 20 21 22 23 24 25 26 27 28 29 30 31 32 33 34 35 36 37 38 39 40 41 42 43 44 45 46 47 48 49 50

000
ASUS45 KPSR 061200
RWRAZ

ARIZONA REGIONAL HOURLY WEATHER ROUNDUP
NATIONAL WEATHER SERVICE PHOENIX AZ
500 AM MST FRI MAR 06 2015

NOTE: FAIR INDICATES FEW OR NO CLOUDS BELOW 12,000 FEET WITH NO
SIGNIFICANT WEATHER AND/OR OBSTRUCTIONS TO VISIBILITY.

AZZ001>003-036-061300-
NORTHWEST ARIZONA

CITY           SKY/WX    TMP DP  RH WIND       PRES   REMARKS
KINGMAN        CLEAR     38  25  59 E5        30.27F WCI  34
6HR MIN TEMP:  32; 6HR MAX TEMP:  43;

$$

AZZ004>008-015-016-018-061300-
NORTH CENTRAL ARIZONA

CITY           SKY/WX    TMP DP  RH WIND       PRES   REMARKS
GRAND CANYON     N/A    N/A N/A N/A MISG      30.34S
PRESCOTT       CLEAR     28  16  60 SW6       30.29S WCI  22
6HR MIN TEMP:  27; 6HR MAX TEMP:  36;

FLAGSTAFF      NOT AVBL
PAYSON         CLEAR     37  12  35 NE5       30.30S WCI  34
PAGE           CLEAR     34  24  67 CALM      30.37R
6HR MIN TEMP:  34; 6HR MAX TEMP:  40;

$$

AZZ009>014-017-061300-
NORTHEAST ARIZONA

CITY           SKY/WX    TMP DP  RH WIND       PRES   REMARKS
WINSLOW        NOT AVBL
SAINT JOHNS    CLEAR     20  10  65 CALM      30.34S
6HR MIN TEMP:  16; 6HR MAX TEMP:  31;

WINDOW ROCK    CLEAR     19  13  77 CALM      30.37R
6HR MIN TEMP:  17; 6HR MAX TEMP:  26;

$$

AZZ023-061300-
GREATER PHOENIX AREA

CITY           SKY/WX    TMP DP  RH WIND       PRES   REMARKS
PHOENIX        CLEAR     54  25  32 E3        30.14S
6HR MIN TEMP:  51; 6HR MAX TEMP:  64;

DEER VALLEY    CLEAR     52  17  25 N8        30.15F
6HR MIN TEMP:  49; 6HR MAX TEMP:  62;

SCOTTSDALE     CLEAR     48  25  40 CALM      30.16F
6HR MIN TEMP:  48; 6HR MAX TEMP:  64;

MESA-GATEWAY   CLEAR     46  30  53 NE5       30.17S
$$

AZZ027-028-061300-
SOUTHWEST MARICOPA COUNTY AND PINAL COUNTY

CITY           SKY/WX    TMP DP  RH WIND       PRES   REMARKS
CASA GRANDE    CLEAR     55  23  28 NE17      30.14S
6HR MIN TEMP:  52; 6HR MAX TEMP:  57;

$$

AZZ503-504-507>509-061300-
SOUTHEAST ARIZONA

CITY           SKY/WX    TMP DP  RH WIND       PRES   REMARKS
TUCSON         CLEAR     49  22  34 E6        30.16F
6HR MIN TEMP:  48; 6HR MAX TEMP:  54;

NOGALES        CLEAR     43  24  47 NE7       30.14S
6HR MIN TEMP:  42; 6HR MAX TEMP:  47;

SIERRA VISTA   CLEAR     37  27  65 E10       30.20S WCI  30
SAFFORD        CLEAR     39  21  48 SE10      30.29S WCI  32
6HR MIN TEMP:  38; 6HR MAX TEMP:  49;

$$

AZZ020-021-025-026-031-061300-
SOUTHWEST ARIZONA

CITY           SKY/WX    TMP DP  RH WIND       PRES   REMARKS
YUMA           CLEAR     60  25  26 N12       30.09S
6HR MIN TEMP:  59; 6HR MAX TEMP:  62;

$$

CAZ031-033-041-043-047-048-061-061300-
SOUTHERN CALIFORNIA

CITY           SKY/WX    TMP DP  RH WIND       PRES   REMARKS
DOWNTOWN L.A.  CLEAR     51  30  44 CALM      30.13S
6HR MIN TEMP:  49; 6HR MAX TEMP:  60;

L.A. AIRPORT   CLEAR     52  27  38 CALM      30.13S
6HR MIN TEMP:  51; 6HR MAX TEMP:  62;

SAN DIEGO      CLEAR     53  32  44 N5        30.12F
6HR MIN TEMP:  52; 6HR MAX TEMP:  63;

BURBANK        CLEAR     47  22  37 W3        30.13S
6HR MIN TEMP:  46; 6HR MAX TEMP:  61;

ONTARIO        CLEAR     47  26  44 NW9       30.13S
6HR MIN TEMP:  44; 6HR MAX TEMP:  65;

RIVERSIDE      CLEAR     47  27  45 E5        30.14F
6HR MIN TEMP:  44; 6HR MAX TEMP:  56;

PALM SPRINGS   CLEAR     61  16  17 W6        30.18S
6HR MIN TEMP:  59; 6HR MAX TEMP:  69;

EL CENTRO NAS  CLEAR     49  30  48 W13       30.11F
6HR MIN TEMP:  47; 6HR MAX TEMP:  55;

IMPERIAL       CLEAR     47  33  58 CALM      30.11S
6HR MIN TEMP:  47; 6HR MAX TEMP:  53;

BLYTHE         CLEAR     50  33  52 E7        30.16S
6HR MIN TEMP:  49; 6HR MAX TEMP:  61;

$$

NVZ020-UTZ003-061300-
SOUTHERN NEVADA-UTAH

CITY           SKY/WX    TMP DP  RH WIND       PRES   REMARKS
LAS VEGAS      NOT AVBL
SALT LAKE CITY CLEAR     31  23  72 SE6       30.42R WCI  25
6HR MIN TEMP:  31; 6HR MAX TEMP:  36;

$$

NMZ009-TXZ055-061300-
NEW MEXICO-WEST TEXAS

CITY           SKY/WX    TMP DP  RH WIND       PRES   REMARKS
ALBUQUERQUE    PTCLDY    31  14  49 CALM      30.37R
6HR MIN TEMP:  28; 6HR MAX TEMP:  39;

EL PASO        CLEAR     30  20  66 N6        30.35R WCI  24
6HR MIN TEMP:  29; 6HR MAX TEMP:  39;

$$


........................KEY........................
SKY/WX - SKY CONDITION/WEATHER
TMP    - TEMPERATURE IN FAHRENHEIT
DP     - DEW POINT IN FAHRENHEIT
RH     - RELATIVE HUMIDITY IN PERCENT
WIND   - DIRECTION AND SPEED IN MILES PER HOUR (MPH)
VRB    - VARIABLE WIND DIRECTION
PRES   - MEAN SEA LEVEL PRESSURE IN INCHES OF MERCURY
         F - FALLING PRESSURE   R - RISING PRESSURE
         S - STEADY PRESSURE
VSB    - VISIBILITY IN MILES
HX     - HEAT INDEX IN FAHRENHEIT
WCI    - WIND CHILL INDEX IN FAHRENHEIT
TC     - TEMPERATURE IN CELSIUS WHICH IS ALSO KNOWN AS
         TEMPERATURE IN CENTIGRADE
AFB    - AIR FORCE BASE
         LUKE AFB IS LUKE AIR FORCE BASE
         DAVIS-MONTHAN IS DAVIS-MONTHAN AIR FORCE BASE
NAS    - NAVAL AIR STATION
         EL CENTRO NAS IS EL CENTRO NAVAL AIR STATION
N/A    - NOT AVAILABLE



USA.gov is the U.S. government's official web portal to all federal, state and local government web resources and services.